Simultaneous Nadir Overpasses (SNOs) Predictions

Prediction of SNOs between GOES-16 and NPP Satellite Orbit:

Table of predicted SNOs for the next 14.0 days since TLE Epoch: 5/4/2024
Index Date Time (GOES-16) GOES-16 Lat,Lon NPP Lat,Lon Distance(km) Time Diff (sec)
1 05/04/2024 18:21:09 0.02, -75.20 0.19, -74.38 93.99 80
2 05/07/2024 06:24:10 -0.02, -75.22 -0.05, -75.12 12.26 80
3 05/09/2024 18:30:00 0.02, -75.24 -0.14, -75.88 73.25 80
4 05/10/2024 18:08:35 0.02, -75.25 0.87, -71.34 444.47 80
5 05/12/2024 06:33:02 -0.02, -75.27 0.27, -76.62 153.54 80
6 05/13/2024 06:11:37 -0.02, -75.28 -0.74, -72.09 364.54 80
7 05/14/2024 18:36:12 0.01, -75.30 -0.44, -77.39 236.99 80
8 05/15/2024 18:14:46 0.01, -75.32 0.58, -72.85 281.80 80
9 05/17/2024 06:39:13 -0.01, -75.36 0.61, -78.12 314.46 80
